Welcome to Crazy Orc, l'antre du jeu de rôles à Lyon. Please login or sign up.

18 Mai 2024 à 09:41:14

Login with username, password and session length

Crazy Orc, l'antre du jeu de rôles à Lyon - Centre de statistiques

Statistiques générales

Total des membres:
798
Total des messages:
98522
Total des sujets:
4327
Total des catégories:
4
Membres en ligne:
43
Connexions simultanées:
808 - 21 Janvier 2020 à 20:55:59
En ligne aujourd'hui:
273
Total des pages vues:
44092224
Moyenne des inscriptions par jour:
0.26
Moyenne des messages par jour:
22.67
Moyenne des sujets par jour:
1.04
Total des sections:
40
Dernier membre:
Helzie
Moyenne d'utilisateurs connectés par jour:
54.84
Statistiques des sexes:
Ne pas afficher: 365
Masculin: 362
Féminin: 71
Pages vues en moyenne par jour:
7018.82

Top 10 des posteurs

ManuDevil
7077
GroumpH
5098
nunch
3857
LeDupontesque
3084
jules
3026
Mandy
2883
Scratchy
2766
MAO
2493
snake
1947
Le0
1878

Top lanceurs de sujets

nunch
600
Morithil
462
ManuDevil
292
GroumpH
246
Scratchy
132
MAO
110
LeDupontesque
106
jules
99
snake
92
CCCP
86

Le plus de temps en ligne

Mandy
133 j 19 h 59 m
GroumpH
112 j 9 h 16 m
CCCP
88 j 22 h 39 m
Nukeflow
73 j 8 h 19 m
ManuDevil
69 j 10 h 42 m
Felipe
61 j 12 h 19 m
dao
56 j 17 h 58 m
nunch
49 j 1 h 47 m
Patate
43 j 9 h 9 m
Rh
42 j 23 h 32 m

Les utilisateurs les plus aimés

ManuDevil
83
Arkana31
76
Morithil
25
MJulien
25
Phil
24
Lionhell
24
LeDupontesque
22
Patate
18
DeReel (il)
16
Haley Lektrik
12

Historique du forum (basé sur l'heure interne du forum)

Résumé annuel Nouveaux sujets Nouveaux messages Nouveaux membres Connexions simultanées Pages vues
* 2024 62 431 64 600 4788424
Mai 2024 3 31 3 520 667495
Avril 2024 16 93 16 600 1613449
Mars 2024 14 105 12 553 672303
Février 2024 17 116 25 349 567612
Janvier 2024 12 86 8 301 1267565
* 2023 193 1234 127 260 5271275
Décembre 2023 17 64 5 260 1399734
Novembre 2023 12 123 14 217 909538
Octobre 2023 21 141 12 187 333148
Septembre 2023 19 182 18 138 366302
Août 2023 8 42 7 130 236673
2023-08-01 0 3 0 88 9908
2023-08-02 0 1 0 92 25688
2023-08-03 0 0 1 130 22181
2023-08-04 0 0 0 94 6830
2023-08-05 0 0 0 104 7107
2023-08-06 0 0 0 97 8220
2023-08-07 0 0 0 91 8585
2023-08-08 0 1 0 84 6523
2023-08-09 0 2 0 100 8113
2023-08-10 0 1 0 79 6452
2023-08-11 0 0 0 56 3679
2023-08-12 0 0 0 14 5633
2023-08-13 0 2 0 13 9543
2023-08-14 0 0 0 15 7692
2023-08-15 0 0 0 17 4167
2023-08-16 0 1 1 17 5663
2023-08-17 0 2 0 17 6721
2023-08-18 1 3 1 22 6957
2023-08-19 0 0 0 18 6175
2023-08-20 0 2 0 24 6346
2023-08-21 5 8 0 22 6595
2023-08-22 0 0 1 25 6339
2023-08-23 0 0 0 34 5650
2023-08-24 0 0 0 15 3823
2023-08-25 0 1 0 16 6923
2023-08-26 0 2 0 20 5518
2023-08-27 1 1 3 75 7526
2023-08-28 0 2 0 31 5528
2023-08-29 1 2 0 38 6623
2023-08-30 0 0 0 23 5772
2023-08-31 0 8 0 52 4193
Juillet 2023 6 39 4 140 269774
Juin 2023 23 109 10 159 303581
Mai 2023 23 124 16 182 262587
Avril 2023 19 159 11 174 284480
Mars 2023 13 86 6 155 330966
Février 2023 13 62 5 165 274947
Janvier 2023 19 103 19 148 299545
* 2022 183 1154 96 261 3778792
Décembre 2022 9 37 1 161 306381
Novembre 2022 16 103 6 261 350274
Octobre 2022 11 120 17 208 290108
Septembre 2022 17 115 6 258 357415
Août 2022 15 108 9 147 318817
Juillet 2022 13 69 4 208 308045
Juin 2022 14 76 4 62 333112
Mai 2022 16 118 8 91 339244
Avril 2022 18 133 12 61 254691
Mars 2022 15 123 8 65 281935
2022-03-01 0 3 0 48 8993
2022-03-02 1 8 1 45 10064
2022-03-03 1 2 1 50 8853
2022-03-04 0 4 0 44 7834
2022-03-05 0 2 0 41 7119
2022-03-06 0 0 0 37 10411
2022-03-07 0 3 0 54 12871
2022-03-08 0 9 0 36 8020
2022-03-09 0 4 0 33 8530
2022-03-10 2 5 0 44 12186
2022-03-11 0 3 0 42 15489
2022-03-12 0 6 0 38 11948
2022-03-13 3 3 1 37 8518
2022-03-14 0 10 0 36 3827
2022-03-15 1 7 0 41 5401
2022-03-16 0 2 0 39 5518
2022-03-17 0 1 0 39 6210
2022-03-18 0 3 2 41 8871
2022-03-19 3 10 2 40 8261
2022-03-20 0 2 0 41 7879
2022-03-21 0 1 0 39 7223
2022-03-22 0 2 0 39 5856
2022-03-23 1 6 0 63 8416
2022-03-24 0 3 0 43 8308
2022-03-25 2 8 0 55 5010
2022-03-26 0 6 0 43 11353
2022-03-27 0 1 0 48 12519
2022-03-28 0 1 1 41 14845
2022-03-29 0 3 0 65 10578
2022-03-30 0 2 0 54 8689
2022-03-31 1 3 0 55 12335
Février 2022 17 84 9 58 314588
Janvier 2022 22 68 12 70 324182
* 2021 129 756 53 338 4376522
Décembre 2021 8 37 0 129 661064
Novembre 2021 13 99 4 153 262314
2021-11-01 0 1 0 104 6791
2021-11-02 1 4 0 86 7303
2021-11-03 3 9 1 90 4912
2021-11-04 1 2 0 113 8815
2021-11-05 1 12 1 82 8224
2021-11-06 0 6 0 79 7367
2021-11-07 0 6 0 70 7525
2021-11-08 0 0 0 84 5740
2021-11-09 0 2 0 81 6641
2021-11-10 0 2 0 115 6991
2021-11-11 2 8 0 122 9859
2021-11-12 0 3 0 125 14014
2021-11-13 0 1 1 135 14443
2021-11-14 0 3 0 153 13594
2021-11-15 0 1 0 139 14330
2021-11-16 0 2 1 132 10656
2021-11-17 0 3 0 88 7851
2021-11-18 0 1 0 88 9836
2021-11-19 0 3 0 75 12547
2021-11-20 0 4 0 72 7556
2021-11-21 0 0 0 61 5092
2021-11-22 4 7 0 67 7221
2021-11-23 1 4 0 75 7572
2021-11-24 0 3 0 71 7662
2021-11-25 0 0 0 80 5738
2021-11-26 0 1 0 75 6288
2021-11-27 0 6 0 77 8820
2021-11-28 0 2 0 83 6614
2021-11-29 0 2 0 74 11072
2021-11-30 0 1 0 122 11240
Octobre 2021 20 208 15 159 298103
Septembre 2021 24 171 10 280 285455
Août 2021 11 33 7 73 231609
Juillet 2021 6 8 2 81 305173
Juin 2021 17 31 2 135 311168
Mai 2021 3 31 4 268 597777
Avril 2021 10 51 6 287 308355
Mars 2021 7 24 1 308 444900
Février 2021 5 29 2 338 223056
Janvier 2021 5 34 0 322 447548
* 2020 206 1716 105 808 4713463
Décembre 2020 6 38 2 320 310487
2020-12-01 1 1 0 121 10809
2020-12-02 0 3 0 116 10099
2020-12-03 0 2 0 114 11876
2020-12-04 0 0 0 94 10791
2020-12-05 0 3 0 82 9574
2020-12-06 1 10 0 78 10653
2020-12-07 0 4 0 68 10998
2020-12-08 0 0 0 66 32260
2020-12-09 0 1 0 67 7435
2020-12-10 0 1 1 60 7610
2020-12-11 0 0 0 60 7643
2020-12-12 0 1 0 63 7412
2020-12-13 0 1 0 50 7185
2020-12-14 1 2 0 46 5821
2020-12-15 0 1 0 44 8427
2020-12-16 0 0 0 320 13083
2020-12-17 0 0 0 74 9703
2020-12-18 0 0 0 71 8569
2020-12-19 0 0 0 63 7390
2020-12-20 0 3 0 65 6819
2020-12-21 1 1 0 59 6108
2020-12-22 0 0 0 70 10438
2020-12-23 0 1 0 73 9331
2020-12-24 0 0 0 72 10558
2020-12-25 0 0 0 77 9826
2020-12-26 0 0 0 72 10399
2020-12-27 1 1 1 88 10008
2020-12-28 0 1 0 88 8712
2020-12-29 1 1 0 105 10795
2020-12-30 0 0 0 79 10368
2020-12-31 0 0 0 69 9787
Novembre 2020 12 97 3 352 464426
Octobre 2020 21 169 7 346 497422
Septembre 2020 30 356 15 133 325183
Août 2020 16 147 7 163 471897
2020-08-01 0 0 1 125 9376
2020-08-02 0 0 1 127 10771
2020-08-03 2 4 0 135 9364
2020-08-04 0 0 0 163 13035
2020-08-05 0 5 1 160 20546
2020-08-06 0 2 0 131 12711
2020-08-07 0 0 0 119 12203
2020-08-08 0 0 0 103 12458
2020-08-09 0 2 0 87 11220
2020-08-10 0 1 0 81 10362
2020-08-11 0 1 0 83 14026
2020-08-12 0 3 0 87 134172
2020-08-13 0 5 0 103 10481
2020-08-14 0 3 0 97 13299
2020-08-15 2 3 0 96 8890
2020-08-16 3 6 1 82 8258
2020-08-17 0 11 0 85 9541
2020-08-18 0 6 0 91 10678
2020-08-19 0 5 0 84 11112
2020-08-20 1 15 1 78 11469
2020-08-21 0 7 0 84 11326
2020-08-22 0 5 0 83 11201
2020-08-23 1 3 0 71 10011
2020-08-24 3 8 0 82 10392
2020-08-25 0 2 0 95 9967
2020-08-26 0 5 0 92 10480
2020-08-27 2 9 0 92 12374
2020-08-28 1 12 1 95 9959
2020-08-29 0 9 1 90 9439
2020-08-30 0 8 0 104 10776
2020-08-31 1 7 0 137 12000
Juillet 2020 16 77 2 100 345760
Juin 2020 17 60 5 127 452817
Mai 2020 7 22 3 295 321652
Avril 2020 10 47 1 189 300030
Mars 2020 24 253 3 199 467854
Février 2020 18 171 9 323 281798
Janvier 2020 29 279 48 808 474137
2020-01-01 0 12 0 120 10073
2020-01-02 1 9 0 127 13456
2020-01-03 3 8 5 120 7230
2020-01-04 1 7 2 109 7682
2020-01-05 0 6 2 116 7700
2020-01-06 2 9 1 122 10580
2020-01-07 0 2 3 120 7752
2020-01-08 1 11 3 117 8845
2020-01-09 2 13 1 115 11380
2020-01-10 0 6 1 106 9117
2020-01-11 0 9 0 188 8366
2020-01-12 3 17 3 120 9658
2020-01-13 0 10 1 268 9745
2020-01-14 2 5 3 625 12117
2020-01-15 0 1 0 587 10280
2020-01-16 0 15 2 597 12766
2020-01-17 2 17 3 575 11348
2020-01-18 0 9 2 108 11823
2020-01-19 0 8 1 132 7576
2020-01-20 0 2 0 589 7895
2020-01-21 0 4 1 808 8119
2020-01-22 4 9 0 507 11803
2020-01-23 0 1 1 383 6222
2020-01-24 1 15 1 244 6849
2020-01-25 0 2 1 110 7819
2020-01-26 2 13 2 118 38722
2020-01-27 0 6 3 116 167649
2020-01-28 2 11 3 108 7008
2020-01-29 2 13 1 114 7552
2020-01-30 0 17 0 111 7527
2020-01-31 1 12 2 106 9478
* 2019 246 3411 313 446 3308531
Décembre 2019 18 159 26 446 351248
Novembre 2019 16 245 33 325 524135
Octobre 2019 24 272 59 121 189762
Septembre 2019 25 386 54 141 376708
Août 2019 22 257 31 122 225760
Juillet 2019 24 281 62 149 190301
Juin 2019 11 171 3 112 246519
Mai 2019 23 311 10 167 218891
Avril 2019 21 294 9 174 311459
Mars 2019 22 372 16 142 344146
Février 2019 18 288 4 110 142132
Janvier 2019 22 375 6 113 187470
2019-01-01 1 15 2 48 3038
2019-01-02 1 15 0 46 2001
2019-01-03 0 6 0 21 1368
2019-01-04 1 11 0 45 1552
2019-01-05 0 6 0 53 3362
2019-01-06 0 8 0 63 4705
2019-01-07 0 9 0 55 12308
2019-01-08 2 13 0 53 18061
2019-01-09 1 10 1 113 10965
2019-01-10 1 29 1 113 14217
2019-01-11 0 13 0 109 30587
2019-01-12 0 7 0 109 8140
2019-01-13 1 10 0 107 5158
2019-01-14 4 31 0 103 4347
2019-01-15 1 10 0 105 3882
2019-01-16 1 13 0 111 3382
2019-01-17 1 18 1 80 2837
2019-01-18 0 8 0 101 2592
2019-01-19 0 12 1 113 3015
2019-01-20 0 16 0 100 2773
2019-01-21 1 13 0 104 3262
2019-01-22 0 4 0 103 2681
2019-01-23 0 18 0 100 2956
2019-01-24 0 14 0 103 4754
2019-01-25 1 3 0 104 2549
2019-01-26 4 22 0 106 3353
2019-01-27 0 4 0 102 3126
2019-01-28 0 7 0 108 3010
2019-01-29 0 8 0 102 5181
2019-01-30 0 6 0 100 9811
2019-01-31 1 16 0 89 8497
* 2018 338 6176 81 641 2624946
Décembre 2018 43 306 8 253 421582
Novembre 2018 26 467 9 641 383363
Octobre 2018 34 527 6 321 248725
Septembre 2018 34 641 10 127 216306
Août 2018 32 583 16 101 188648
Juillet 2018 21 386 3 104 182475
Juin 2018 31 442 3 110 213303
Mai 2018 21 422 4 107 174393
Avril 2018 25 564 5 104 159849
Mars 2018 20 634 4 96 152933
Février 2018 25 631 7 93 121912
Janvier 2018 26 573 6 94 161457
2018-01-01 1 13 0 81 3873
2018-01-02 0 35 0 86 4281
2018-01-03 0 16 0 84 4474
2018-01-04 0 12 0 88 3657
2018-01-05 0 25 0 83 5021
2018-01-06 1 14 1 84 5114
2018-01-07 3 35 0 78 5039
2018-01-08 0 12 0 91 4838
2018-01-09 2 43 1 88 5141
2018-01-10 0 18 0 87 5299
2018-01-11 0 6 0 74 2983
2018-01-12 1 12 1 15 1584
2018-01-13 4 36 0 18 1661
2018-01-14 2 33 0 27 2978
2018-01-15 0 10 0 22 2126
2018-01-16 0 19 0 18 1286
2018-01-17 0 6 0 16 1525
2018-01-18 0 13 1 77 2416
2018-01-19 0 24 0 88 4882
2018-01-20 1 10 0 83 4920
2018-01-21 0 14 0 86 5414
2018-01-22 0 15 0 88 5074
2018-01-23 0 21 0 91 4662
2018-01-24 1 8 0 17 13946
2018-01-25 0 11 0 80 24972
2018-01-26 0 13 0 91 3885
2018-01-27 2 12 2 85 6401
2018-01-28 6 32 0 92 7019
2018-01-29 1 12 0 86 5701
2018-01-30 0 20 0 94 5869
2018-01-31 1 23 0 88 5416
* 2017 346 6100 56 180 1675168
Décembre 2017 37 499 6 91 136063
Novembre 2017 37 675 6 93 169670
Octobre 2017 15 426 2 93 151449
Septembre 2017 28 548 5 94 135543
Août 2017 29 384 6 99 148097
Juillet 2017 25 490 5 87 176472
Juin 2017 33 603 4 89 156248
Mai 2017 26 470 2 99 181189
Avril 2017 31 490 5 180 139896
Mars 2017 27 432 3 119 90981
Février 2017 31 587 7 87 74924
Janvier 2017 27 496 5 80 114636
* 2016 389 7721 79 245 2075605
Décembre 2016 34 533 2 170 118206
Novembre 2016 34 586 6 245 122991
Octobre 2016 43 726 7 191 160217
Septembre 2016 26 657 9 85 157449
Août 2016 31 721 9 114 169873
2016-08-01 0 34 0 56 15771
2016-08-02 1 24 0 49 4965
2016-08-03 0 15 0 54 4374
2016-08-04 0 39 0 46 4547
2016-08-05 1 46 1 42 4740
2016-08-06 0 18 0 49 4109
2016-08-07 9 43 2 54 3599
2016-08-08 1 25 0 48 3592
2016-08-09 0 15 0 49 3725
2016-08-10 0 19 0 45 4264
2016-08-11 1 9 0 44 3140
2016-08-12 1 24 0 45 4209
2016-08-13 0 13 2 48 4850
2016-08-14 2 31 2 46 4216
2016-08-15 0 27 0 25 3114
2016-08-16 1 23 0 30 2754
2016-08-17 1 30 0 30 3105
2016-08-18 0 16 0 60 3872
2016-08-19 0 27 0 58 4655
2016-08-20 1 23 0 72 4528
2016-08-21 0 6 0 64 4231
2016-08-22 0 19 0 114 6004
2016-08-23 1 25 0 103 5871
2016-08-24 1 24 0 59 3064
2016-08-25 0 7 0 90 16785
2016-08-26 1 16 0 69 17998
2016-08-27 0 12 0 72 4035
2016-08-28 7 42 1 73 3576
2016-08-29 0 27 0 77 5294
2016-08-30 1 27 1 71 5843
2016-08-31 1 15 0 69 5043
Juillet 2016 19 513 3 58 166690
Juin 2016 30 565 5 53 211715
Mai 2016 40 1116 8 94 166514
Avril 2016 27 529 7 65 155208
Mars 2016 35 513 11 88 224056
Février 2016 35 640 4 96 192454
Janvier 2016 35 622 8 95 230232
* 2015 373 6684 79 100 1549803
Décembre 2015 28 499 7 68 140303
Novembre 2015 40 724 5 35 146607
Octobre 2015 32 760 10 84 227528
Septembre 2015 40 948 13 100 169012
Août 2015 36 566 12 61 119954
Juillet 2015 29 462 7 31 89666
Juin 2015 24 453 5 30 112317
Mai 2015 30 390 2 24 73874
Avril 2015 29 408 4 25 95371
Mars 2015 38 550 7 37 130116
Février 2015 15 434 2 24 123854
Janvier 2015 32 490 5 44 121201
* 2014 428 7364 58 58 2478164
Décembre 2014 24 360 4 33 191610
Novembre 2014 37 572 7 46 525858
Octobre 2014 45 928 8 58 364915
Septembre 2014 24 549 8 32 162413
2014-09-01 1 8 0 24 5910
2014-09-02 1 12 0 23 5619
2014-09-03 0 4 0 29 5993
2014-09-04 2 39 1 24 6382
2014-09-05 1 16 0 25 7071
2014-09-06 0 24 0 32 5116
2014-09-07 1 14 0 17 3343
2014-09-08 1 16 0 16 2841
2014-09-09 1 12 0 23 5898
2014-09-10 1 41 0 27 4745
2014-09-11 3 21 0 23 5234
2014-09-12 2 33 1 25 5243
2014-09-13 0 7 0 21 4951
2014-09-14 1 7 1 18 4734
2014-09-15 0 29 0 21 5744
2014-09-16 0 14 0 18 4638
2014-09-17 0 10 0 19 5146
2014-09-18 0 13 0 21 5364
2014-09-19 0 8 0 21 5709
2014-09-20 0 9 1 19 4470
2014-09-21 3 26 1 19 5891
2014-09-22 0 13 0 19 5025
2014-09-23 1 22 0 20 6398
2014-09-24 0 23 1 19 6006
2014-09-25 0 16 0 22 5732
2014-09-26 0 7 0 21 4404
2014-09-27 1 19 1 23 4732
2014-09-28 2 30 1 27 5640
2014-09-29 2 36 0 25 7160
2014-09-30 0 20 0 31 7274
Août 2014 17 251 4 27 191624
Juillet 2014 25 369 3 30 236312
Juin 2014 29 602 3 32 220918
Mai 2014 34 842 6 29 157174
Avril 2014 45 662 1 25 104486
2014-04-01 3 29 0 14 4594
2014-04-02 3 19 0 19 3032
2014-04-03 2 14 0 13 2744
2014-04-04 0 12 0 14 3214
2014-04-05 0 5 0 17 3260
2014-04-06 0 6 0 18 3097
2014-04-07 1 13 0 20 2585
2014-04-08 0 11 0 23 3197
2014-04-09 1 11 0 18 3647
2014-04-10 0 8 1 17 3928
2014-04-11 0 9 0 20 2170
2014-04-12 1 13 0 24 2967
2014-04-13 0 13 0 21 3698
2014-04-14 1 8 0 23 3494
2014-04-15 4 15 0 22 6980
2014-04-16 1 25 0 19 4022
2014-04-17 0 17 0 15 6056
2014-04-18 3 22 0 17 2815
2014-04-19 0 16 0 17 2641
2014-04-20 1 11 0 18 4085
2014-04-21 2 23 0 22 3723
2014-04-22 0 30 0 22 4837
2014-04-23 0 37 0 24 3303
2014-04-24 3 36 0 25 3341
2014-04-25 8 65 0 18 2930
2014-04-26 3 46 0 19 2659
2014-04-27 5 45 0 19 3483
2014-04-28 0 19 0 19 2858
2014-04-29 2 46 0 14 2266
2014-04-30 1 38 0 14 2860
Mars 2014 32 595 4 26 120439
Février 2014 24 660 5 28 102996
Janvier 2014 92 974 5 33 99419
* 2013 408 8887 76 89 1597727
Décembre 2013 36 785 2 79 132305
Novembre 2013 36 751 8 29 141119
Octobre 2013 37 683 10 26 116570
Septembre 2013 33 723 15 29 160779
Août 2013 20 356 4 30 113960
Juillet 2013 21 331 2 24 120164
Juin 2013 40 731 5 34 119512
Mai 2013 34 881 3 47 157484
Avril 2013 38 799 8 33 124279
2013-04-01 4 20 0 24 3359
2013-04-02 1 47 0 21 4467
2013-04-03 0 45 0 23 3233
2013-04-04 0 33 0 16 2834
2013-04-05 0 17 0 19 3016
2013-04-06 2 17 1 21 4302
2013-04-07 1 58 0 33 4201
2013-04-08 0 22 0 17 4107
2013-04-09 3 42 0 18 3737
2013-04-10 1 19 0 16 3054
2013-04-11 2 20 0 18 2700
2013-04-12 2 22 1 17 2910
2013-04-13 0 8 2 17 2288
2013-04-14 0 22 0 16 2273
2013-04-15 0 18 0 20 2553
2013-04-16 2 35 2 23 4161
2013-04-17 3 14 0 15 2830
2013-04-18 0 20 0 21 2765
2013-04-19 0 13 0 22 3929
2013-04-20 1 9 0 17 4630
2013-04-21 3 33 0 15 4446
2013-04-22 5 26 1 18 5097
2013-04-23 1 41 0 26 5957
2013-04-24 2 35 0 21 7277
2013-04-25 1 26 0 22 3866
2013-04-26 1 35 0 22 3466
2013-04-27 1 41 1 19 7601
2013-04-28 1 28 0 26 7931
2013-04-29 1 26 0 19 6992
2013-04-30 0 7 0 18 4297
Mars 2013 40 1111 9 62 147762
Février 2013 32 838 5 79 125299
2013-02-01 2 20 1 38 4770
2013-02-02 0 12 0 40 3753
2013-02-03 3 19 0 33 3610
2013-02-04 0 34 0 41 4908
2013-02-05 2 22 0 22 4094
2013-02-06 0 19 0 20 3240
2013-02-07 0 22 1 79 4987
2013-02-08 0 26 0 16 2458
2013-02-09 0 34 0 14 2084
2013-02-10 0 16 0 16 2327
2013-02-11 3 27 0 61 4020
2013-02-12 5 48 1 47 4064
2013-02-13 1 79 0 37 3898
2013-02-14 3 74 1 34 3452
2013-02-15 1 45 0 31 3283
2013-02-16 1 31 1 37 3089
2013-02-17 3 30 0 45 3996
2013-02-18 1 42 0 56 3300
2013-02-19 1 43 0 52 5836
2013-02-20 0 24 0 43 5131
2013-02-21 0 33 0 52 5984
2013-02-22 1 20 0 44 4402
2013-02-23 0 17 0 49 3514
2013-02-24 1 18 0 20 5210
2013-02-25 2 21 0 23 9279
2013-02-26 0 18 0 35 9894
2013-02-27 2 20 0 40 5096
2013-02-28 0 24 0 52 5620
Janvier 2013 41 898 5 89 138494
* 2012 446 10690 67 157 1274957
Décembre 2012 57 1411 4 45 150137
Novembre 2012 46 1137 8 25 112399
Octobre 2012 45 1068 7 25 80970
Septembre 2012 37 876 11 38 107023
Août 2012 30 595 5 41 95032
Juillet 2012 24 563 2 157 78638
Juin 2012 39 984 10 33 88620
Mai 2012 22 703 5 26 77701
Avril 2012 33 714 4 33 95151
Mars 2012 35 977 5 48 160160
Février 2012 34 704 5 33 117877
Janvier 2012 44 958 1 30 111249
* 2011 822 21877 118 48 1861895
Décembre 2011 68 1315 7 36 141929
Novembre 2011 94 1539 4 36 150015
Octobre 2011 81 1597 13 41 169207
2011-10-01 1 13 0 28 6004
2011-10-02 1 20 0 20 5506
2011-10-03 0 91 0 25 7611
2011-10-04 6 70 3 24 4912
2011-10-05 5 74 0 23 4729
2011-10-06 4 81 0 21 5207
2011-10-07 1 60 0 17 5128
2011-10-08 3 34 2 18 4442
2011-10-09 13 67 0 20 6218
2011-10-10 4 60 0 16 6297
2011-10-11 1 71 0 21 6462
2011-10-12 1 31 0 27 5896
2011-10-13 1 44 0 16 5869
2011-10-14 1 47 0 19 7736
2011-10-15 1 22 0 29 4683
2011-10-16 0 19 0 20 3832
2011-10-17 10 74 0 20 4981
2011-10-18 3 56 1 17 5476
2011-10-19 3 76 0 25 6145
2011-10-20 3 70 1 19 5110
2011-10-21 1 34 0 16 4516
2011-10-22 0 30 1 21 3856
2011-10-23 3 45 2 41 4932
2011-10-24 1 49 0 19 4749
2011-10-25 4 50 0 28 5342
2011-10-26 1 58 0 27 5178
2011-10-27 6 118 2 26 7117
2011-10-28 0 27 0 19 5048
2011-10-29 1 33 0 21 7438
2011-10-30 0 18 1 17 4059
2011-10-31 2 55 0 20 4728
Septembre 2011 96 1991 19 24 158540
2011-09-01 1 105 0 18 4820
2011-09-02 0 44 0 17 3692
2011-09-03 0 35 0 16 3065
2011-09-04 1 39 1 18 3341
2011-09-05 4 67 1 21 3815
2011-09-06 0 37 0 12 5171
2011-09-07 2 64 2 17 7762
2011-09-08 2 83 0 23 7440
2011-09-09 0 103 0 20 8363
2011-09-10 0 27 0 15 6046
2011-09-11 11 96 0 24 5135
2011-09-12 6 137 1 18 5300
2011-09-13 18 102 0 19 6004
2011-09-14 5 57 0 22 4369
2011-09-15 2 43 0 15 3469
2011-09-16 3 88 0 18 5547
2011-09-17 1 43 2 19 4640
2011-09-18 4 42 2 21 5991
2011-09-19 2 80 0 18 5773
2011-09-20 4 66 1 22 6364
2011-09-21 8 83 0 21 5960
2011-09-22 1 47 2 20 4972
2011-09-23 2 43 0 18 4346
2011-09-24 2 44 0 23 3841
2011-09-25 2 62 3 20 4963
2011-09-26 1 65 0 19 4935
2011-09-27 6 66 3 19 4561
2011-09-28 3 108 1 21 5839
2011-09-29 5 77 0 18 7139
2011-09-30 0 38 0 15 5877
Août 2011 68 1372 16 48 135201
Juillet 2011 57 1156 10 30 112626
Juin 2011 40 1214 6 31 149115
Mai 2011 64 1997 8 39 181997
Avril 2011 46 1637 9 38 176986
Mars 2011 54 2388 6 31 211307
Février 2011 59 2656 5 46 128248
Janvier 2011 95 3015 15 44 146724
* 2010 615 23079 70 91 1409620
Décembre 2010 54 2635 5 43 199984
Novembre 2010 59 2475 6 49 127779
Octobre 2010 56 2811 15 58 134942
2010-10-01 1 27 0 18 2575
2010-10-02 0 7 0 14 2199
2010-10-03 2 20 1 13 2150
2010-10-04 3 117 0 25 4970
2010-10-05 4 100 2 23 4774
2010-10-06 4 161 2 17 4633
2010-10-07 3 125 0 23 4574
2010-10-08 3 149 0 22 4322
2010-10-09 1 41 0 10 2439
2010-10-10 0 73 0 19 3425
2010-10-11 1 71 0 17 3794
2010-10-12 4 99 0 20 4927
2010-10-13 3 122 0 31 4968
2010-10-14 2 103 0 35 4902
2010-10-15 1 135 0 35 4851
2010-10-16 2 49 0 30 3550
2010-10-17 1 89 2 45 4610
2010-10-18 2 133 3 45 5301
2010-10-19 2 99 0 30 4707
2010-10-20 2 110 2 47 4597
2010-10-21 1 121 0 41 5105
2010-10-22 0 77 0 41 4177
2010-10-23 0 59 0 28 3880
2010-10-24 3 75 0 33 4059
2010-10-25 1 114 0 58 5595
2010-10-26 0 91 0 37 5246
2010-10-27 3 121 1 41 5815
2010-10-28 1 115 0 33 5457
2010-10-29 2 72 0 36 4402
2010-10-30 2 53 1 37 4041
2010-10-31 2 83 1 45 4897
Septembre 2010 53 1528 8 29 95249
Août 2010 32 1287 6 33 89617
Juillet 2010 34 1637 5 32 97290
Juin 2010 46 2137 3 28 109648
Mai 2010 50 1497 6 28 99050
2010-05-01 1 32 0 21 2421
2010-05-02 3 74 0 19 3038
2010-05-03 8 104 1 18 3744
2010-05-04 2 85 3 21 4178
2010-05-05 0 40 0 17 3300
2010-05-06 1 42 0 23 2824
2010-05-07 0 73 0 18 3255
2010-05-08 1 44 0 15 3488
2010-05-09 1 41 0 15 3389
2010-05-10 1 68 0 19 3933
2010-05-11 1 48 0 22 5245
2010-05-12 0 29 0 26 3746
2010-05-13 0 7 0 18 2614
2010-05-14 2 27 0 20 2765
2010-05-15 0 19 0 19 2419
2010-05-16 2 18 0 16 2298
2010-05-17 0 57 1 15 3088
2010-05-18 3 32 0 19 2709
2010-05-19 1 31 0 19 2946
2010-05-20 1 29 0 25 2781
2010-05-21 3 39 0 18 2646
2010-05-22 0 19 0 21 2436
2010-05-23 2 20 0 20 2475
2010-05-24 1 27 0 19 2780
2010-05-25 5 104 0 19 4022
2010-05-26 3 91 0 18 3752
2010-05-27 1 50 0 17 3010
2010-05-28 2 50 0 28 3237
2010-05-29 1 43 0 20 3063
2010-05-30 2 50 1 18 2987
2010-05-31 2 104 0 25 4461
Avril 2010 45 1888 3 26 102219
Mars 2010 53 1534 2 46 118201
Février 2010 65 1574 4 91 117274
Janvier 2010 68 2076 7 43 118367
* 2009 752 28223 96 159 970278
Décembre 2009 39 2001 5 54 122418
2009-12-01 2 99 0 21 3827
2009-12-02 0 91 0 20 3658
2009-12-03 3 128 0 22 4078
2009-12-04 2 111 0 23 3795
2009-12-05 1 47 1 17 2228
2009-12-06 2 48 0 17 3135
2009-12-07 1 116 1 27 3862
2009-12-08 1 58 0 19 4184
2009-12-09 1 94 0 33 3923
2009-12-10 0 72 0 38 3566
2009-12-11 1 46 0 25 2665
2009-12-12 1 38 0 29 2266
2009-12-13 0 42 0 28 1478
2009-12-14 2 86 0 26 2993
2009-12-15 2 128 0 32 3520
2009-12-16 3 89 0 25 3587
2009-12-17 2 106 0 31 3888
2009-12-18 0 129 0 54 6524
2009-12-19 0 43 0 14 2643
2009-12-20 1 41 0 28 7360
2009-12-21 2 76 0 28 8634
2009-12-22 5 114 1 31 4041
2009-12-23 0 33 0 39 3096
2009-12-24 1 34 0 13 2752
2009-12-25 0 7 0 32 3780
2009-12-26 2 26 0 21 2640
2009-12-27 0 33 1 10 2292
2009-12-28 2 14 1 27 10310
2009-12-29 0 18 0 15 5672
2009-12-30 1 16 0 14 2982
2009-12-31 1 18 0 11 3039
Novembre 2009 59 3138 6 38 117432
Octobre 2009 67 3218 11 18 122232
Septembre 2009 73 2730 14 159 92082
Août 2009 47 1405 8 15 61919
Juillet 2009 68 1737 11 21 67267
Juin 2009 63 2759 4 37 72789
2009-06-01 2 158 0 10 2944
2009-06-02 2 130 0 11 2903
2009-06-03 1 94 0 10 2141
2009-06-04 1 73 0 10 2152
2009-06-05 0 73 0 9 1915
2009-06-06 4 73 0 9 1406
2009-06-07 7 84 0 12 2068
2009-06-08 0 91 0 10 2235
2009-06-09 2 105 0 14 2686
2009-06-10 1 63 0 10 1917
2009-06-11 2 98 1 10 2352
2009-06-12 1 110 0 13 2659
2009-06-13 1 24 0 12 1572
2009-06-14 1 96 0 11 2188
2009-06-15 5 109 0 15 2673
2009-06-16 0 91 0 14 2713
2009-06-17 1 59 0 29 2049
2009-06-18 2 72 0 0 2339
2009-06-19 2 95 0 13 2336
2009-06-20 5 74 0 13 1883
2009-06-21 2 74 0 11 2259
2009-06-22 4 77 1 37 3040
2009-06-23 2 92 0 11 2504
2009-06-24 1 56 0 13 1784
2009-06-25 3 93 1 12 2373
2009-06-26 2 121 0 10 3083
2009-06-27 1 74 0 12 1964
2009-06-28 3 98 0 10 2698
2009-06-29 2 160 0 13 3452
2009-06-30 3 142 1 13 4501
Mai 2009 46 2166 6 16 66386
Avril 2009 101 2850 6 16 73303
Mars 2009 80 3538 7 17 83610
Février 2009 57 1586 6 16 50521
Janvier 2009 52 1095 12 10 40319
* 2008 334 4655 56 26 234055
Décembre 2008 36 663 7 12 28104
Novembre 2008 51 1090 9 10 35948
Octobre 2008 50 609 5 10 26582
2008-10-01 4 74 0 10 1718
2008-10-02 0 20 1 7 955
2008-10-03 3 35 0 7 1660
2008-10-04 0 8 0 5 1228
2008-10-05 3 31 0 7 1306
2008-10-06 4 28 0 8 771
2008-10-07 0 12 0 9 791
2008-10-08 0 2 0 5 459
2008-10-09 1 13 0 7 501
2008-10-10 1 14 1 7 785
2008-10-11 1 7 0 5 486
2008-10-12 2 19 0 7 758
2008-10-13 4 29 0 6 852
2008-10-14 1 12 0 6 550
2008-10-15 2 15 0 7 607
2008-10-16 0 14 0 4 475
2008-10-17 1 18 1 6 748
2008-10-18 1 22 0 7 727
2008-10-19 4 26 1 7 1372
2008-10-20 1 13 0 10 751
2008-10-21 0 16 0 5 751
2008-10-22 1 10 0 4 431
2008-10-23 3 24 0 7 840
2008-10-24 0 20 0 5 732
2008-10-25 1 6 0 6 746
2008-10-26 3 19 0 6 777
2008-10-27 5 26 0 8 792
2008-10-28 3 29 1 8 1405
2008-10-29 1 17 0 6 1065
2008-10-30 0 12 0 5 819
2008-10-31 0 18 0 7 724
Septembre 2008 40 619 5 10 24365
Août 2008 28 252 6 9 21916
Juillet 2008 20 256 5 7 16733
Juin 2008 17 363 6 26 18903
Mai 2008 17 180 2 10 13320
2008-05-01 0 2 0 3 298
2008-05-02 0 7 0 3 301
2008-05-03 0 2 0 3 238
2008-05-04 0 2 0 4 802
2008-05-05 1 4 0 3 331
2008-05-06 0 6 0 0 392
2008-05-07 0 2 0 4 358
2008-05-08 0 1 0 2 277
2008-05-09 0 5 1 4 290
2008-05-10 0 2 0 3 288
2008-05-11 1 2 0 2 369
2008-05-12 1 6 0 5 569
2008-05-13 1 10 0 5 595
2008-05-14 0 16 1 4 626
2008-05-15 3 13 0 0 742
2008-05-16 0 7 0 5 526
2008-05-17 1 7 0 5 478
2008-05-18 0 3 0 4 760
2008-05-19 0 4 0 4 495
2008-05-20 1 5 0 3 347
2008-05-21 0 12 0 4 459
2008-05-22 0 4 0 5 505
2008-05-23 0 3 0 3 360
2008-05-24 1 8 0 4 308
2008-05-25 0 5 0 2 261
2008-05-26 0 7 0 3 260
2008-05-27 0 3 0 10 398
2008-05-28 3 8 0 7 411
2008-05-29 0 5 0 5 350
2008-05-30 1 9 0 0 574
2008-05-31 3 10 0 5 352
Avril 2008 16 146 3 8 16063
Mars 2008 18 158 1 9 12835
Février 2008 19 155 2 9 9679
Janvier 2008 22 164 5 7 9607
* 2007 276 2246 55 9 102999
Décembre 2007 21 167 5 8 17081
Novembre 2007 20 168 3 6 8467
Octobre 2007 21 147 4 5 8193
Septembre 2007 22 183 4 9 9896
2007-09-01 1 6 0 4 255
2007-09-02 1 7 1 3 302
2007-09-03 2 13 0 5 572
2007-09-04 1 15 1 9 508
2007-09-05 1 4 1 7 396
2007-09-06 1 23 0 6 618
2007-09-07 1 9 1 0 426
2007-09-08 0 5 0 4 308
2007-09-09 0 2 0 5 280
2007-09-10 1 8 0 0 334
2007-09-11 5 17 0 6 584
2007-09-12 0 3 0 7 335
2007-09-13 0 2 0 8 430
2007-09-14 0 3 0 3 253
2007-09-15 0 1 0 2 169
2007-09-16 0 0 0 3 139
2007-09-17 0 3 0 4 258
2007-09-18 0 1 0 5 289
2007-09-19 1 8 0 4 366
2007-09-20 1 4 0 3 258
2007-09-21 1 5 0 3 285
2007-09-22 0 5 0 7 259
2007-09-23 1 2 0 3 272
2007-09-24 0 8 0 4 304
2007-09-25 1 3 0 3 367
2007-09-26 1 5 0 4 246
2007-09-27 0 2 0 4 261
2007-09-28 0 4 0 4 291
2007-09-29 2 11 0 4 373
2007-09-30 0 4 0 0 158
Août 2007 23 226 2 6 9096
Juillet 2007 18 127 1 4 10165
Juin 2007 25 309 2 6 13196
Mai 2007 30 315 8 7 11830
Avril 2007 44 428 13 9 13382
Mars 2007 52 176 13 4 1693